Tracking 19796 objects as of 19-Jul-2019
HD Live streaming from Space Station
objects crossing your sky now

METEOR 2-14

Track METEOR 2-14 now!
10-day predictions
METEOR 2-14 is classified as:


NORAD ID: 16735
Int'l Code: 1986-039A
Perigee: 940.6 km
Apogee: 964.0 km
Inclination: 82.5 °
Period: 103.9 minutes
Semi major axis: 7323 km
RCS: 4.6711 m2 (large)
Launch date: May 27, 1986
Source: Commonwealth of Independent States (former USSR) (CIS)
Launch site: PLESETSK MISSILE AND SPACE COMPLEX (PKMTR)
aabbcc
Your satellite tracking list
Your tracking list is empty




NASA's NSSDC Master Catalog

Two Line Element Set (TLE):
1 16735U 86039A   19199.88372137 +.00000015 +00000-0 -11798-6 0  9995
2 16735 082.5371 136.7671 0016011 102.5739 290.1623 13.85293975675055
Source of the keplerian elements: AFSPC